Regional Weather Roundup
Issued by NWS Sterling, VA

Home | Current Version | Previous Version | Text Only | Print | Product List | Glossary Off
Versions: 1 2 3 4 5 6 7 8 9 10 11 12 13 14 15 16 17 18 19 20 21 22 23 24 25 26 27 28

000
ASUS41 KLWX 191210
RWRLWX

REGIONAL WEATHER ROUNDUP
NATIONAL WEATHER SERVICE BALTIMORE MD/WASHINGTON DC
800 AM EDT SAT APR 19 2014

Note: "FAIR" indicates few or no clouds below 12,000 feet
with no significant weather and/or obstructions to visibility.
 TC=TEMPERATURE CELSIUS

 * =Non NWS site. Station does not report precipitation (e.g. rain,
    snow, etc.), thunder, or fog.

DCZ001-MDZ009-015-VAZ040>042-051-053>054-191300-
WASHINGTON METRO

CITY           SKY/WX    TMP DP  RH WIND       PRES   REMARKS
WASHINGTON NAT CLOUDY    48  40  73 NE3       30.30R
DULLES         PTSUNNY   43  38  82 VRB5      30.30R
ANDREWS AFB    CLOUDY    43  41  93 CALM      30.29R
FT BELVOIR     CLOUDY    43  42  95 CALM      30.30R
QUANTICO       CLOUDY    45  40  82 NW6       30.31R
COLLEGE PARK*  CLOUDY    45  41  87 CALM      30.30R
LEESBURG*      PTSUNNY   43  41  93 N5        30.31R
GAITHERSBURG*  PTSUNNY   41  37  87 CALM      30.32R

$$

MDZ006>007-011-014-191300-
BALTIMORE METRO

CITY           SKY/WX    TMP DP  RH WIND       PRES   REMARKS
BWI AIRPORT    CLOUDY    43  38  82 CALM      30.29R
MD SCIENCE CTR   N/A     49  37  63 MISG      30.31R
MARTIN STATE   CLOUDY    45  39  81 CALM      30.31R
ANNAPOLIS      CLOUDY    46  42  86 NW3       30.30R
FORT MEADE*    PTSUNNY   41  37  87 CALM      30.32R

$$

MDZ012-015-019>023-191300-
MARYLAND EASTERN SHORE

CITY           SKY/WX    TMP DP  RH WIND       PRES   REMARKS
OCEAN CITY     CLOUDY    46  42  86 CALM      30.29R
SALISBURY      CLOUDY    45  41  86 CALM      30.28R
BAY BRIDGE AP* CLOUDY    46  45  93 CALM      30.31R
CAMBRIDGE*     CLOUDY    45  41  87 CALM      30.29R
EASTON*        CLOUDY    45  45 100 CALM      30.33R

$$

MDZ017>025-191300-
SOUTHERN MARYLAND

CITY           SKY/WX    TMP DP  RH WIND       PRES   REMARKS
PATUXENT RIVER CLOUDY    46  43  89 CALM      30.29R
ST INIGOES     CLOUDY    47  43  86 CALM      30.28R
LEONARDTOWN*   CLOUDY    45  41  87 CALM      30.30R

$$

MDZ003>005-191300-
NORTH CENTRAL MARYLAND

CITY           SKY/WX    TMP DP  RH WIND       PRES   REMARKS
FREDERICK*     SUNNY     41  41 100 CALM      30.33R
HAGERSTOWN APT MOSUNNY   41  36  82 NW7       30.29R
WESTMINSTER*   PTSUNNY   45  36  70 N3        30.28R

$$

MDZ501>502-191300-
WESTERN MARYLAND

CITY           SKY/WX    TMP DP  RH WIND       PRES   REMARKS
OAKLAND*       PTSUNNY   45  30  57 E5        30.28S
CUMBERLAND*    PTSUNNY   43  39  87 CALM      30.35R

$$

VAZ025>031-191300-
SHENANDOAH VALLEY

CITY           SKY/WX    TMP DP  RH WIND       PRES   REMARKS
WINCHESTER*    PTSUNNY   45  36  70 CALM      30.29R
STAUNTON*      PTSUNNY   43  39  88 N3        30.28R

$$

WVZ021-048>050-054>055-191300-
EASTERN WEST VIRGINIA PANHANDLE

CITY           SKY/WX    TMP DP  RH WIND       PRES   REMARKS
MARTINSBURG    PTSUNNY   42  36  79 CALM      30.30R
PETERSBURG*    PTSUNNY   45  43  93 CALM      30.32R

$$

VAZ036>039-050-191300-
CENTRAL FOOTHILLS

CITY           SKY/WX    TMP DP  RH WIND       PRES   REMARKS
CHARLOTTESVILL CLOUDY    43  40  89 CALM      30.26R
CULPEPER*      CLOUDY    45  45 100 CALM      30.29R

$$

VAZ055>057-191300-
NORTH AND CENTRAL PIEDMONT

CITY           SKY/WX    TMP DP  RH WIND       PRES   REMARKS
FREDERICKSBRG* CLOUDY    45  43  93 CALM      30.28S
STAFFORD*      CLOUDY    42  42 100 CALM      30.33R

$$

NCZ024-NYZ072-PAZ021-071-VAZ022-071-191300-
OTHER REGIONAL OBSERVATIONS

CITY           SKY/WX    TMP DP  RH WIND       PRES   REMARKS
NEW YORK CITY  MOSUNNY   46  34  62 CALM      30.28R
PHILADELPHIA   PTSUNNY   46  38  73 SW3       30.29R
PITTSBURGH     CLOUDY    46  39  76 N5        30.34R
ROANOKE        CLOUDY    49  39  68 NE6       30.24S
RICHMOND       CLOUDY    47  42  83 NE5       30.26R
RALEIGH        LGT RAIN  47  43  86 NE10      30.18S

$$

ANZ530>537-191300-
MARINE OBSERVATIONS

STATION/POSITION TIME  TEMP    WIND        PRES
                       AIR SEA DIR/SP/G
                 (UTC) (F)     (DEG/KT/KT) (MB)
THOMAS PT LIGHT  1200   47 51  320/  3/  4 1026.6R
BALT KEY BRIDGE  1200   47      20/  5/  5 1025.9R
COVE POINT       1200   47      CALM  /  1 1025.4R
LEWISETTA        1200   48 53   30/  3/  5 1025.2R
SOLOMONS ISLAND  1200      52                N/A
PINEY POINT      1200           40/  5/  6   N/A

$$




USA.gov is the U.S. government's official web portal to all federal, state and local government web resources and services.